Helicity
14 68 51 32 -21 -3 10 -11 91 190 108 62 37 100 64 119 37 22 -28 24 132 173 131 166 124 72 50 50 40 36 49 53 48 50 51 53 53 52 50 41 34 33 30 36 30 35 36 34 30
15 22 58 21 5 19 40 48 129 142 106 80 53 94 84 37 51 34 17 42 124 156 151 174 138 84 53 52 47 53 66 72 72 61 61 62 65 65 65 62 50 43 39 36 36 45 44 40 29
25 8 31 20 -3 71 80 130 50 24 123 127 75 142 60 36 59 23 14 102 122 112 154 163 140 86 52 44 52 45 76 75 92 81 63 66 70 71 67 66 63 57 50 50 42 49 49 41 29
9 32 19 -4 -24 -24 62 95 89 71 87 91 -11 42 50 16 32 33 8 91 100 94 124 133 118 81 64 59 63 59 70 68 69 86 75 71 70 71 74 71 66 62 56 55 54 53 61 47 29
89 70 51 37 5 12 115 121 142 106 65 95 25 41 35 26 41 40 25 97 91 94 78 88 83 77 81 71 66 73 72 87 85 81 85 73 69 59 53 56 64 67 64 63 71 64 66 45 41
111 68 24 39 43 92 127 147 177 146 87 87 58 65 32 33 36 50 66 101 175 153 93 70 76 84 79 79 73 71 74 78 80 75 75 75 68 63 56 47 52 52 50 55 74 76 80 56 40
99 132 97 20 -27 54 141 89 104 100 54 46 58 95 40 59 47 101 101 126 128 126 140 86 68 75 83 92 89 96 92 90 88 85 80 80 75 67 65 60 60 61 57 51 67 66 76 70 51
96 137 111 45 31 42 168 179 119 98 95 28 42 53 21 22 69 78 90 99 89 96 95 108 91 93 75 75 89 88 94 99 103 108 107 99 83 71 62 59 50 48 86 84 53 51 53 63 58
54 58 -66 -47 9 119 107 119 84 97 123 72 8 14 -39 14 77 63 82 85 101 109 84 79 122 109 97 78 73 80 79 77 76 90 101 107 99 85 77 69 63 60 91 89 72 67 67 49 45
74 28 -163 -52 8 15 29 40 73 56 25 11 15 65 42 43 59 80 113 122 125 147 121 77 78 131 132 99 96 82 82 77 77 75 85 93 89 86 80 69 73 93 105 87 60 65 74 80 63
38 -28 6 10 2 42 54 46 18 40 60 8 17 111 180 193 266 213 165 97 132 173 116 93 55 46 120 108 127 108 101 86 79 79 95 94 81 77 94 92 79 89 104 103 80 74 64 68 83
40 28 62 29 17 38 63 81 112 108 41 21 119 144 235 251 283 255 226 190 152 146 94 82 66 -13 -42 58 116 124 114 96 117 96 118 111 78 75 128 168 137 120 149 107 100 104 99 94 71
51 36 14 32 51 43 76 67 97 79 24 31 116 227 201 188 255 317 240 118 147 174 142 157 126 51 -54 -7 79 73 86 100 80 81 73 127 93 65 135 183 183 173 177 140 146 152 134 107 87
36 20 12 34 28 86 96 96 105 68 14 70 96 147 194 192 169 177 161 160 188 202 193 177 185 84 -11 -30 84 95 97 82 95 88 73 90 99 84 109 190 203 192 169 140 153 166 164 125 97
49 48 23 31 64 37 95 97 82 28 4 179 224 232 219 205 185 174 146 159 165 153 234 233 170 139 87 -2 50 104 112 98 138 112 124 152 136 122 151 170 201 214 160 147 142 142 165 166 123
121 83 30 -28 28 11 60 27 32 14 79 195 204 235 294 249 204 197 179 158 189 164 181 308 211 160 105 63 56 91 99 74 52 91 153 128 182 185 176 177 181 194 169 156 165 167 223 255 225
71 29 22 22 1 29 109 74 52 11 111 218 217 303 405 371 296 191 169 163 211 230 275 345 303 176 104 72 78 86 108 98 88 62 90 133 120 117 159 186 163 173 162 153 135 144 193 265 258
85 40 31 59 45 111 174 105 13 43 178 115 180 424 473 406 327 276 211 257 257 228 241 313 337 357 195 115 80 77 78 61 46 42 64 61 77 72 112 125 118 127 157 157 144 151 215 290 278
30 31 58 -43 29 164 122 90 48 9 79 101 187 452 431 439 461 488 359 333 337 284 240 248 271 230 201 187 133 102 116 96 76 66 51 48 53 59 80 98 122 118 137 132 159 165 163 197 294
28 -4 -38 10 11 107 38 11 32 16 63 94 233 519 581 547 562 538 457 333 318 275 246 244 213 193 167 138 96 72 76 51 41 45 58 62 71 65 82 102 110 111 131 134 144 163 144 197 284
8 41 39 61 46 48 64 73 83 89 95 183 205 509 501 549 563 539 409 325 340 289 248 199 152 109 91 92 74 88 85 73 61 57 61 57 61 62 62 75 109 108 115 109 121 127 145 151 194
33 2 17 43 60 56 94 117 92 95 93 258 324 384 457 490 515 431 342 361 261 185 161 160 161 125 69 53 46 50 50 49 42 64 80 94 79 67 63 80 92 102 119 111 109 125 146 154 159
51 30 27 94 91 117 83 180 65 111 202 322 499 504 539 557 492 365 253 193 157 130 130 155 155 126 97 68 51 51 73 102 114 102 99 92 98 90 85 88 82 96 100 91 91 106 101 93 113
89 66 80 130 148 142 67 152 134 103 269 458 617 656 625 579 454 286 248 230 137 72 112 149 165 136 116 75 67 85 95 114 131 128 116 99 90 101 98 98 120 115 93 91 86 79 104 102 124
161 163 254 230 232 167 102 103 154 81 174 526 700 688 631 560 416 340 379 304 251 222 163 109 107 104 93 58 67 91 110 131 134 131 140 119 100 118 114 101 88 90 81 85 87 101 103 115 124
217 229 347 230 213 103 92 151 155 113 278 514 721 678 599 501 417 476 478 410 355 325 255 179 155 123 68 74 122 153 138 138 122 110 131 124 73 51 64 83 86 85 97 117 112 128 135 116 102
174 195 194 191 141 187 234 303 318 301 485 625 643 586 551 459 484 450 436 371 321 257 169 157 124 92 107 128 124 147 154 158 144 98 53 48 62 56 76 88 70 69 99 48 109 138 118 103 105
159 184 222 239 214 180 231 249 305 441 535 557 569 583 572 570 589 531 421 307 199 132 117 103 101 130 143 121 134 124 146 115 108 108 92 63 -4 11 53 50 25 -24 30 39 36 135 98 71 62
209 185 271 182 242 223 201 205 256 434 553 573 582 611 662 689 552 471 332 226 154 106 104 125 178 186 147 148 142 128 110 102 79 91 85 64 68 31 -3 -12 14 11 34 43 116 122 48 56 87
163 158 215 298 294 249 247 234 115 336 509 559 544 542 553 445 362 319 241 152 150 150 162 172 176 154 134 111 128 103 109 101 105 116 125 115 118 95 69 54 36 23 20 34 -44 -116 42 91 122
Wind_Speed
40 41 35 32 26 24 23 24 24 30 31 37 36 29 37 38 36 27 28 31 32 32 29 30 29 30 31 32 34 33 35 35 36 37 37 37 36 36 36 35 34 33 32 31 31 31 32 32 32
38 38 27 28 22 25 28 18 30 30 28 35 29 26 35 33 32 29 28 30 31 31 28 28 28 27 28 28 30 32 32 32 33 33 34 35 34 34 33 33 32 31 30 29 29 30 30 30 30
36 28 27 22 20 25 31 29 31 30 35 41 27 29 30 29 30 29 27 28 29 28 26 23 25 27 26 25 27 29 25 26 27 29 28 30 31 31 30 29 29 29 28 28 27 28 28 28 28
32 29 29 20 15 27 21 26 32 30 33 39 29 31 32 29 27 27 29 30 29 28 27 28 30 31 28 26 26 27 26 24 23 23 23 24 26 27 27 27 26 26 26 26 26 26 26 25 25
33 28 19 19 18 21 22 25 30 30 30 36 31 24 28 29 27 27 25 27 26 29 32 32 32 30 27 26 26 24 22 22 21 19 19 20 21 22 23 23 24 24 24 24 24 23 23 22 22
31 26 24 28 53 14 22 23 31 30 27 31 29 24 27 25 27 26 24 24 27 29 30 31 30 29 25 24 23 22 22 20 20 19 17 17 17 18 18 19 20 21 21 21 21 21 21 20 20
15 37 36 56 48 22 16 20 26 27 27 26 26 24 23 25 27 29 28 26 26 26 27 27 26 25 25 23 21 19 18 17 17 16 14 14 14 13 14 14 16 18 19 21 20 19 18 18 17
33 40 59 50 42 27 17 23 21 25 30 25 25 20 17 21 25 26 25 24 22 23 24 23 21 19 19 19 20 18 16 15 13 12 11 10 10 10 9 10 11 13 16 18 18 17 15 15 14
52 39 27 29 47 12 17 21 22 26 29 33 24 22 19 22 21 20 20 18 17 17 19 21 18 17 15 17 17 15 14 13 11 10 9 9 9 7 6 5 7 9 11 14 16 15 13 15 13
38 24 16 35 54 28 18 21 19 24 19 22 24 19 15 18 15 15 13 10 8 11 14 15 17 15 12 13 13 10 9 9 9 8 9 9 7 5 4 2 4 7 9 11 15 12 12 11 14
45 19 38 55 47 44 29 30 27 17 25 29 22 25 20 24 26 30 36 30 2 8 13 13 14 13 9 9 7 6 4 4 3 3 5 4 5 3 1 5 4 6 9 15 17 14 14 15 14
39 74 56 52 56 52 45 40 42 45 32 32 18 21 22 26 31 34 38 42 10 6 12 14 15 14 9 5 5 4 5 5 4 2 1 0 1 2 5 4 4 7 13 14 16 16 14 16 19
67 69 69 66 54 52 58 48 49 40 39 20 20 22 24 28 34 37 35 33 31 20 4 9 11 13 12 6 8 5 5 6 3 3 2 2 2 3 8 6 8 12 16 18 18 21 22 18 19
63 68 68 65 49 53 62 49 44 33 29 22 16 19 24 28 31 37 36 34 34 28 28 6 6 10 12 15 10 15 22 12 8 9 5 4 5 6 8 10 12 14 16 18 21 20 23 25 24
66 67 73 73 51 53 60 66 31 31 19 10 8 16 22 23 27 31 31 32 35 34 32 21 5 8 12 14 20 18 28 29 30 33 12 11 12 12 15 15 19 21 22 21 24 26 28 29 26
54 55 52 64 60 54 30 32 42 31 15 10 4 9 15 20 23 26 30 33 34 33 34 32 15 13 17 21 25 25 29 33 37 39 41 15 14 16 19 23 29 28 29 31 34 33 34 35 33
42 47 48 60 43 36 21 35 40 52 8 12 7 5 5 12 20 24 27 31 33 32 31 31 29 23 23 28 28 29 31 38 40 41 40 38 29 28 31 33 36 35 36 39 41 45 41 39 41
41 39 31 31 46 17 16 27 43 36 1 6 14 8 5 8 14 19 24 29 31 32 31 32 33 34 31 29 28 29 33 36 37 38 38 39 40 42 42 44 45 46 46 47 50 53 48 48 45
42 39 46 65 56 24 24 29 32 27 17 17 21 11 6 4 11 19 22 26 30 32 31 32 32 35 35 37 37 35 40 39 42 43 43 43 42 44 44 45 46 53 56 56 57 63 60 60 60
35 41 45 60 44 29 29 24 29 26 27 25 20 14 10 1 9 16 21 25 25 30 31 32 32 35 38 39 40 40 45 42 45 46 47 49 51 51 51 51 54 58 63 65 65 63 68 70 63
39 34 38 46 58 50 45 49 46 51 52 39 15 16 12 6 5 11 18 21 22 27 31 32 33 32 37 42 45 47 48 51 52 53 53 55 52 57 58 61 64 67 69 72 70 71 72 76 68
39 44 50 52 51 48 47 57 52 49 37 27 13 16 12 7 2 8 14 15 18 22 27 31 35 38 38 42 45 49 53 59 57 61 64 66 62 63 66 65 64 65 67 71 74 75 74 75 81
39 50 51 43 45 47 48 45 44 37 31 16 17 14 10 6 1 8 10 9 14 20 26 30 34 39 46 53 57 57 61 63 66 69 73 76 76 79 73 69 69 70 71 75 76 78 79 81 87
38 49 45 43 45 52 37 43 45 34 28 17 13 10 9 4 3 8 12 10 15 20 27 33 40 47 56 62 66 69 72 76 78 79 80 81 80 82 73 72 70 70 76 80 78 77 78 80 83
32 35 43 51 50 51 42 45 40 46 24 25 23 15 8 2 6 12 10 15 23 28 32 37 45 54 61 68 73 75 77 78 80 83 81 79 78 77 74 71 72 76 77 76 76 76 77 77 78
36 34 36 43 45 51 28 40 41 33 14 16 14 10 5 5 8 13 20 26 31 38 46 49 58 65 68 71 79 82 79 77 77 77 78 78 80 83 83 83 85 87 83 75 72 71 72 71 75
37 41 30 46 50 49 34 32 37 14 5 11 12 8 5 6 11 18 25 30 38 46 51 55 61 64 70 75 78 81 76 75 73 75 74 74 74 76 78 80 81 82 84 86 84 76 73 70 73
43 35 37 40 44 48 43 44 35 16 11 12 12 10 8 14 20 26 31 37 42 46 49 55 61 70 75 76 76 73 73 74 78 80 80 75 73 73 73 72 75 79 80 85 87 85 80 73 69
38 40 39 37 39 42 48 42 38 25 21 18 13 10 14 18 24 30 34 39 44 47 54 61 67 75 81 80 74 74 75 77 77 77 75 73 73 73 72 74 82 83 80 73 73 89 77 76 73
44 47 43 39 42 51 45 43 25 16 15 12 12 16 18 25 31 33 37 43 48 56 62 65 71 76 78 76 77 79 79 79 79 79 77 75 76 74 75 79 77 73 70 71 78 80 83 82 81
Wind_Direction
266 250 314 332 5 3 2 29 29 359 1 6 360 30 35 19 18 25 35 41 58 84 89 94 98 99 98 94 95 89 86 81 80 77 76 72 65 61 62 61 60 54 48 45 42 36 31 26 24
290 282 343 345 4 5 11 68 30 360 6 359 34 24 358 355 11 21 1 53 73 85 89 97 105 103 101 100 100 97 92 89 84 81 79 76 72 68 66 64 61 58 53 48 44 43 39 35 29
293 329 343 5 12 18 28 35 41 30 359 355 34 14 17 22 349 8 36 71 70 75 78 85 104 109 106 102 101 99 88 87 83 84 76 72 71 70 67 64 62 58 54 51 46 42 37 31 32
323 329 324 351 28 359 40 30 18 16 7 355 16 16 24 9 15 46 68 82 77 79 72 97 109 113 111 107 104 102 96 87 82 80 74 69 66 68 69 68 64 59 55 49 42 37 35 36 29
319 327 1 354 4 359 16 2 352 3 9 3 11 27 24 29 51 54 69 81 78 77 79 103 108 110 107 110 110 105 101 96 92 85 77 68 61 56 58 63 62 60 55 50 47 44 40 37 36
317 329 331 333 320 8 10 358 335 357 6 0 26 29 14 42 46 46 64 68 79 79 82 100 111 111 108 107 110 110 106 99 97 91 81 71 55 48 50 52 52 51 47 47 41 42 44 38 29
333 309 311 297 318 344 348 356 353 349 4 10 14 16 43 49 43 50 55 64 72 73 79 93 106 109 110 107 106 104 102 99 98 94 81 77 63 49 52 52 53 48 36 26 32 34 40 41 29
303 307 283 295 323 359 32 343 347 356 7 16 359 24 59 64 55 48 45 50 63 68 74 91 97 99 104 103 109 107 101 98 91 88 80 63 51 39 46 62 56 43 30 27 24 35 41 32 36
283 303 309 320 330 14 38 5 356 346 341 335 357 32 76 85 64 46 41 31 42 62 76 81 97 109 108 110 106 98 98 90 76 61 41 31 32 38 32 50 27 17 22 20 15 20 31 15 14
294 303 294 305 313 358 18 10 8 357 14 2 335 351 72 74 48 15 11 13 63 72 82 78 89 104 111 111 115 101 75 63 60 50 32 19 25 20 19 360 336 339 346 356 358 8 8 13 3
287 199 287 290 307 318 335 331 347 357 345 334 348 348 344 340 353 1 353 326 17 57 75 78 80 78 100 101 83 55 49 56 36 56 29 32 13 22 9 327 308 324 327 328 334 341 343 341 343
294 257 280 292 298 301 308 316 309 305 331 334 5 2 353 340 338 336 338 347 32 69 81 88 78 68 78 87 53 72 58 64 41 161 171 331 261 294 316 281 283 289 311 313 318 317 312 314 313
274 273 275 282 293 299 293 301 302 305 311 355 358 344 336 334 330 330 337 358 12 358 51 89 71 51 47 31 4 19 358 355 40 86 122 68 1 239 329 308 300 297 304 297 299 300 303 304 299
284 280 281 285 297 296 287 297 301 306 304 317 349 342 337 332 333 327 327 331 343 352 347 126 97 52 43 18 335 343 348 340 327 308 285 253 301 318 308 308 296 295 297 293 294 293 294 299 302
280 284 277 274 296 293 287 281 298 300 299 291 347 340 335 341 340 331 332 332 334 345 350 357 105 37 31 19 1 333 333 335 345 346 285 273 292 291 299 294 302 296 295 293 292 292 290 293 290
293 290 294 281 287 289 290 291 296 294 254 247 294 327 341 343 348 347 345 338 334 341 348 353 4 3 3 360 353 342 333 328 326 329 336 314 275 291 299 301 302 299 294 296 296 293 288 286 282
293 293 295 292 292 290 271 290 300 298 276 207 263 279 330 359 354 355 356 350 349 353 356 1 5 8 359 353 351 347 339 331 326 323 323 324 316 300 295 298 300 298 295 292 294 293 290 284 284
286 288 291 298 311 290 276 283 300 308 198 247 293 236 263 325 350 356 4 360 352 357 1 0 359 357 359 4 2 357 351 346 339 335 330 322 315 310 305 301 300 301 298 296 295 294 288 288 281
283 284 291 290 302 288 291 290 300 290 277 286 297 211 222 316 357 6 360 358 355 357 3 0 358 355 356 350 350 350 346 343 339 337 335 331 326 319 313 306 301 300 298 295 295 293 291 287 285
272 279 286 287 296 303 298 289 290 293 292 285 277 221 203 256 344 349 348 354 347 351 358 1 0 356 353 352 351 347 341 339 337 333 330 327 324 320 316 310 306 302 301 299 294 293 292 290 283
271 264 279 288 287 291 301 297 295 289 289 293 260 201 193 197 311 347 352 350 347 346 352 353 356 360 356 349 343 340 338 336 334 332 326 323 320 318 315 311 306 303 302 299 297 295 292 291 290
271 279 283 287 290 289 294 293 292 295 282 270 224 200 205 206 345 356 350 349 352 352 355 351 347 348 351 349 344 338 333 329 328 325 322 319 316 313 312 311 309 307 305 301 299 298 294 292 290
276 280 289 290 290 290 288 293 293 291 294 250 216 211 212 181 112 339 349 360 356 356 353 355 352 349 343 339 336 331 327 325 323 321 318 315 313 312 311 311 309 308 307 306 303 300 297 294 294
279 284 285 291 293 284 280 287 294 280 267 248 219 199 174 166 335 348 345 359 354 353 348 346 340 337 335 333 331 328 325 323 320 317 315 314 313 312 311 312 311 310 308 305 304 302 300 299 295
252 273 282 282 279 284 290 283 264 291 250 207 195 194 191 215 327 332 7 353 351 352 350 342 338 333 331 329 328 326 324 322 320 320 319 318 317 317 315 313 311 309 308 306 305 304 303 302 301
256 244 267 282 286 294 276 292 293 302 214 183 182 186 201 273 334 350 340 345 346 341 339 336 331 329 329 329 327 326 325 324 323 323 322 319 317 316 315 314 313 310 308 306 304 303 302 301 301
255 244 240 281 290 296 292 300 309 327 186 178 182 191 240 290 323 327 332 338 333 331 331 331 331 331 330 329 328 329 327 327 327 326 326 324 321 320 320 318 317 317 315 312 305 302 301 302 299
246 260 249 260 280 277 284 280 283 259 224 205 214 231 263 297 309 319 327 328 329 330 330 330 331 330 331 329 328 326 326 326 325 324 323 324 324 324 323 323 321 318 316 318 313 305 298 298 306
232 244 257 263 266 282 290 285 293 234 222 219 230 244 279 297 307 315 322 327 329 331 330 330 331 329 328 329 330 328 328 327 325 324 324 324 324 324 323 321 320 319 317 314 310 302 297 299 301
240 243 247 258 274 268 288 298 312 228 218 221 245 274 289 299 308 317 320 323 326 326 327 328 327 327 326 325 326 326 323 322 321 321 321 321 319 319 319 319 321 321 319 313 301 294 297 302 302